Oxnard, CA

6:43 PM PST on February 22, 2017 (GMT -0800)
Oxnard

Weather History for KOXR - April, 2014

Change the Weather History Date:

Tuesday, April 8, 2014

  Actual Average Record
Temperature  
Mean Temperature 64 °F -  
Max Temperature 77 °F 67 °F 82 °F (2003)
Min Temperature 53 °F 47 °F 38 °F (1967)
Degree Days  
Heating Degree Days 1    
Growing Degree Days 14 (Base 50)    
Moisture  
Dew Point 51 °F    
Average Humidity 74    
Maximum Humidity 97    
Minimum Humidity 36    
Precipitation  
Precipitation 0.00 in - - ()
Sea Level Pressure  
Sea Level Pressure 30.06 in    
Wind  
Wind Speed 7 mph (WNW)    
Max Wind Speed 12 mph    
Max Gust Speed -    
Visibility 7 miles    
Events Fog    
Averages and records for this station are not official NWS values.
T = Trace of Precipitation, MM = Missing Value Source: NWS Daily Summary

Daily Weather History Graph

Daily Weather History Graph

Search for Another Location

Airport or City:

Trip Planner

Search our weather history database for the weather conditions in past years. The results will help you decide how hot, cold, wet, or windy it might be!

Date:

Astronomy

Apr. 08, 2014 Rise Set
Actual Time 6:34 AM PDT 7:23 PM PDT
Civil Twilight 6:09 AM PDT 7:48 PM PDT
Nautical Twilight 5:39 AM PDT 8:18 PM PDT
Astronomical Twilight 5:08 AM PDT 8:49 PM PDT
Moon 1:35 PM PDT (4/8) 2:35 AM PDT (4/8)
Length of Visible Light 13h 39m
Length of Day
12h 48m
Waxing Gibbous, 63% of the Moon is Illuminated
Apr 8
Waxing Gibbous
Apr 15
Full
Apr 22
Last Quarter
Apr 28
New
May 6
First Quarter

Hourly Weather History & Observations

Time (PDT) Temp. Dew Point Humidity Pressure Visibility Wind Dir Wind Speed Gust Speed Precip Events Conditions
12:51 AM 60.1 °F 43.0 °F 53% 30.06 in 10.0 mi NNE 6.9 mph - N/A   Clear
1:51 AM 57.9 °F 41.0 °F 53% 30.05 in 10.0 mi NE 8.1 mph - N/A   Clear
2:51 AM 57.0 °F 41.0 °F 55% 30.06 in 10.0 mi SE 3.5 mph - N/A   Clear
3:51 AM 55.0 °F 46.0 °F 72% 30.07 in 10.0 mi WNW 3.5 mph - N/A   Clear
4:51 AM 54.0 °F 48.0 °F 80% 30.06 in 10.0 mi Calm Calm - N/A   Clear
5:51 AM 53.1 °F 46.0 °F 77% 30.07 in 10.0 mi East 3.5 mph - N/A   Clear
6:51 AM 55.0 °F 41.0 °F 59% 30.08 in 10.0 mi NE 3.5 mph - N/A   Clear
7:51 AM 62.1 °F 41.0 °F 46% 30.09 in 10.0 mi NE 5.8 mph - N/A   Clear
8:51 AM 69.1 °F 41.0 °F 36% 30.09 in 10.0 mi NNE 5.8 mph - N/A   Clear
9:51 AM 66.9 °F 54.0 °F 63% 30.11 in 10.0 mi West 6.9 mph - N/A   Clear
11:51 AM 75.0 °F 46.9 °F 37% 30.10 in 10.0 mi West 8.1 mph - N/A   Clear
12:51 PM 72.0 °F 52.0 °F 49% 30.09 in 10.0 mi West 9.2 mph - N/A   Clear
1:51 PM 71.1 °F 55.0 °F 57% 30.07 in 10.0 mi West 9.2 mph - N/A   Clear
2:51 PM 71.1 °F 54.0 °F 55% 30.05 in 10.0 mi West 9.2 mph - N/A   Clear
3:51 PM 69.1 °F 53.1 °F 57% 30.04 in 10.0 mi West 11.5 mph - N/A   Clear
4:51 PM 66.9 °F 53.1 °F 61% 30.03 in 10.0 mi WNW 10.4 mph - N/A   Clear
5:51 PM 64.9 °F 54.0 °F 68% 30.02 in 10.0 mi WNW 10.4 mph - N/A   Clear
6:42 PM 57.2 °F 55.4 °F 94% 30.02 in 2.5 mi West 9.2 mph - N/A   Partly Cloudy
6:45 PM 57.2 °F 55.4 °F 94% 30.02 in 1.0 mi West 10.4 mph - N/A   Mist
6:51 PM 57.0 °F 55.0 °F 93% 30.02 in 0.2 mi West 11.5 mph - N/A Fog Fog
7:12 PM 57.2 °F 53.6 °F 88% 30.03 in 2.0 mi West 10.4 mph - N/A   Overcast
7:30 PM 55.4 °F 53.6 °F 94% 30.03 in 7.0 mi West 10.4 mph - N/A   Mostly Cloudy
7:34 PM 55.4 °F 53.6 °F 94% 30.03 in 8.0 mi West 9.2 mph - N/A   Scattered Clouds
7:51 PM 57.0 °F 54.0 °F 89% 30.03 in 9.0 mi West 11.5 mph - N/A   Partly Cloudy
8:48 PM 57.2 °F 53.6 °F 88% 30.05 in 9.0 mi West 5.8 mph - N/A   Mostly Cloudy
8:51 PM 57.0 °F 54.0 °F 89% 30.05 in 9.0 mi West 5.8 mph - N/A   Mostly Cloudy
9:14 PM 55.4 °F 53.6 °F 94% 30.05 in 9.0 mi WNW 3.5 mph - N/A   Mostly Cloudy
9:51 PM 57.0 °F 54.0 °F 89% 30.06 in 8.0 mi WNW 9.2 mph - N/A   Overcast
9:58 PM 57.2 °F 53.6 °F 88% 30.06 in 2.5 mi WNW 9.2 mph - N/A   Overcast
10:01 PM 55.4 °F 53.6 °F 94% 30.06 in 0.8 mi WNW 9.2 mph - N/A   Overcast
10:13 PM 55.4 °F 53.6 °F 94% 30.06 in 0.2 mi WNW 8.1 mph - N/A Fog Fog
10:51 PM 55.9 °F 54.0 °F 93% 30.06 in 0.2 mi WNW 8.1 mph - N/A Fog Fog
11:51 PM 54.0 °F 53.1 °F 97% 30.07 in 0.8 mi NW 8.1 mph - N/A   Mist